This demonstration page uses our WeatherBlox Daily Observations layout. Learn more.

Left ArrowRight Arrow

39.92423, -83.80882

Hourly Observations for March 26, 2019

Temp ( °F °C ) Dew Point ( °F °C ) Humidity (%) Winds ( mph kmh ) Pressure ( in mb ) Visibility ( mi km ) Precip ( " mm )
12:56 am 00:56 Clear 29 -1.7 18 -7.8 63 63 NNE 13 20 30.29 1026 10 16.0934 0 0
1:56 am 01:56 Clear 29 -1.7 16 -8.9 58 58 NNE 15 24 30.29 1026 10 16.0934 0 0
2:56 am 02:56 Clear 29 -1.7 13 -10.6 51 51 NNE 12 19 30.31 1026 10 16.0934 0 0
4:56 am 04:56 Clear 27 -2.8 13 -10.6 55 55 NNE 12 19 30.32 1027 10 16.0934 0 0
5:56 am 05:56 Clear 25 -3.9 14 -10 63 63 NNE 8 13 30.34 1028 10 16.0934 0 0
6:56 am 06:56 Clear 23 -5 15 -9.4 72 72 N 7 11 30.37 1029 10 16.0934 0 0
7:56 am 07:56 Sunny 23 -5 17 -8.3 78 78 N 6 9 30.4 1030 10 16.0934 0 0
8:56 am 08:56 Sunny 29 -1.7 17 -8.3 61 61 NE 10 17 30.42 1030 10 16.0934 0 0
9:56 am 09:56 Sunny 33 0.6 18 -7.8 54 54 ENE 15 24 30.42 1030 10 16.0934 0 0
10:56 am 10:56 Sunny 35 1.7 18 -7.8 50 50 ENE 14 22 30.43 1031 10 16.0934 0 0
11:56 am 11:56 Sunny 37 2.8 19 -7.2 48 48 NNE 12 19 30.44 1031 10 16.0934 0 0
12:56 pm 12:56 Sunny 39 3.9 19 -7.2 45 45 NE 7 11 30.44 1031 10 16.0934 0 0
1:56 pm 13:56 Sunny 41 5 21 -6.1 45 45 NE 10 17 30.42 1030 10 16.0934 0 0
2:56 pm 14:56 Sunny 43 6.1 20 -6.7 40 40 NE 14 22 30.41 1030 10 16.0934 0 0
3:56 pm 15:56 Sunny 45 7.2 21 -6.1 39 39 ENE 8 13 30.39 1029 10 16.0934 0 0
4:56 pm 16:56 Sunny 45 7.2 18 -7.8 34 34 NE 10 17 30.39 1029 10 16.0934 0 0
5:56 pm 17:56 Sunny 45 7.2 18 -7.8 34 34 NE 12 19 30.39 1029 10 16.0934 0 0
6:56 pm 18:56 Sunny 44 6.7 18 -7.8 35 35 NE 9 15 30.39 1029 10 16.0934 0 0
7:56 pm 19:56 Clear 38 3.3 18 -7.8 44 44 NE 6 9 30.39 1029 10 16.0934 0 0
8:56 pm 20:56 Clear 36 2.2 17 -8.3 46 46 NE 7 11 30.4 1030 10 16.0934 0 0
9:56 pm 21:56 Clear 33 0.6 21 -6.1 61 61 NNE 9 15 30.42 1030 10 16.0934 0 0
10:56 pm 22:56 Clear 31 -0.6 21 -6.1 67 67 NE 8 13 30.41 1030 10 16.0934 0 0
11:56 pm 23:56 Clear 30 -1.1 19 -7.2 64 64 NE 7 11 30.42 1030 10 16.0934 0 0

Powered by AerisWeather